Temperature
24 23 22 21 21 20 20 20 20 20 19 19 19 19 18 18 18 18 18 18 18 18 18 18 18 18 18 18 18 18 18 18 18 18 18 18 18 18 18 18 18 18 18
24 23 22 21 21 21 20 20 20 20 20 19 19 19 19 18 18 18 18 18 18 18 18 18 18 18 18 18 18 18 18 18 18 18 18 19 19 19 19 19 18 18 18
25 23 22 22 21 21 21 21 20 20 20 20 19 19 19 19 18 18 18 18 18 18 18 18 18 18 18 18 18 18 18 18 18 18 18 19 20 19 19 19 18 18 18
25 24 23 22 22 21 21 21 21 20 20 20 19 19 19 19 19 19 18 18 18 18 18 18 18 18 18 18 18 18 18 18 18 18 18 18 19 19 19 19 19 18 18
25 24 23 22 22 21 21 21 21 20 20 20 20 20 19 19 19 19 18 18 18 18 18 18 18 18 18 18 18 18 18 18 18 18 18 18 18 18 19 19 19 19 18
25 24 23 22 22 21 21 21 21 21 20 20 20 20 19 19 19 19 19 18 18 18 18 18 18 18 18 18 18 18 18 18 18 18 18 18 18 18 18 19 18 18 18
25 25 24 23 22 21 21 21 21 21 21 20 20 20 19 19 19 19 19 19 18 18 18 18 18 18 18 18 18 18 18 18 18 18 18 18 18 18 18 18 18 18 18
26 25 24 23 22 21 21 21 21 21 21 20 20 20 20 19 19 19 19 19 19 19 18 18 19 18 18 18 18 18 18 18 18 17 17 17 17 17 17 18 18 18 18
26 25 24 23 22 22 21 21 21 21 20 20 20 20 20 20 19 19 19 19 19 19 18 19 19 18 18 18 18 18 18 18 18 18 17 17 17 17 17 17 17 18 18
26 25 24 23 22 22 21 21 20 20 20 20 20 20 20 20 20 19 19 19 19 19 18 18 18 18 18 18 18 18 18 18 18 18 18 17 17 17 17 17 17 17 17
25 24 24 23 22 22 21 21 20 20 20 20 20 20 20 20 19 19 19 19 19 19 19 18 18 18 18 18 18 18 18 18 18 18 17 17 17 17 17 17 17 17 17
24 24 23 23 22 22 21 21 20 20 20 20 20 20 19 19 19 19 19 19 19 19 18 18 18 18 18 18 18 18 18 17 17 17 17 17 17 17 17 17 17 17 17
23 23 22 22 22 21 21 20 20 20 20 19 19 19 19 19 19 19 19 19 19 18 18 18 18 18 18 18 18 18 17 17 17 17 17 17 17 17 17 17 17 17 17
22 22 21 21 20 20 20 20 20 20 19 19 19 19 18 18 19 19 19 18 18 18 18 18 18 18 17 17 17 17 17 17 17 17 17 17 17 17 17 17 17 16 16
21 21 20 20 20 19 19 19 19 19 19 19 18 19 18 18 18 18 18 18 18 18 18 17 17 17 17 17 17 17 17 17 17 17 17 16 17 17 16 16 16 16 16
20 20 20 19 19 19 19 19 19 18 18 18 18 18 18 18 18 18 18 18 18 17 17 17 17 17 17 17 17 17 17 17 16 16 16 16 16 16 16 16 16 16 16
20 19 19 19 18 18 18 18 18 18 18 18 18 18 18 18 18 17 17 17 17 17 17 17 16 16 17 17 17 17 17 16 16 16 16 16 16 16 15 16 15 15 15
19 18 18 18 18 18 18 18 18 18 18 17 17 17 17 17 17 17 17 17 17 16 16 16 16 16 16 16 16 16 16 16 15 15 15 15 15 15 15 15 15 15 15
18 18 18 18 18 17 17 18 17 17 17 17 17 17 17 17 17 16 17 16 16 16 16 16 16 16 16 16 16 16 15 15 15 15 15 15 15 15 15 14 14 14 14
17 17 17 17 17 17 17 17 17 17 17 17 17 17 16 16 16 16 16 16 16 16 16 15 15 15 15 15 15 15 15 14 14 14 14 14 14 14 14 14 14 14 14
17 17 16 16 16 16 16 16 17 17 16 16 16 16 16 16 16 16 16 16 15 15 15 15 15 15 15 15 15 15 14 14 14 14 14 14 14 14 14 13 13 13 13
16 16 15 15 15 16 16 16 16 16 16 16 16 16 16 16 16 16 15 15 15 15 15 14 14 14 14 14 14 14 14 14 13 13 13 13 13 13 13 13 13 13 13
15 15 15 15 15 15 15 15 16 16 16 16 16 15 15 15 15 15 15 14 14 14 14 14 14 14 14 14 14 14 13 13 13 13 13 13 13 13 13 12 12 12 12
15 15 14 14 14 14 15 15 15 15 15 15 15 14 14 14 14 14 14 14 14 14 14 14 14 13 13 13 13 13 13 13 12 12 12 12 12 12 12 12 12 12 12
14 14 14 14 14 14 14 14 14 14 14 14 14 14 14 14 14 13 13 13 13 13 13 13 13 13 13 13 12 12 12 12 12 12 11 11 11 11 11 11 11 11 11
14 13 13 13 13 13 13 13 13 13 13 13 13 13 13 13 13 13 13 13 13 13 13 13 13 13 12 12 12 12 12 11 11 11 11 11 11 11 11 11 11 11 11
Wind_Speed
11 11 12 11 11 10 10 9 9 9 8 7 7 6 6 6 5 5 7 7 7 8 7 6 6 6 5 5 6 5 5 5 4 3 3 4 5 4 4 4 4 4 5
11 11 12 12 12 12 11 11 10 10 10 8 6 5 5 5 5 5 6 7 8 8 8 6 6 6 5 6 6 6 4 4 4 4 3 3 4 5 4 4 4 4 5
13 13 13 13 13 12 12 11 11 11 10 9 7 6 6 5 6 6 6 7 8 8 7 7 6 6 6 6 6 6 6 5 5 4 3 3 2 1 3 4 4 4 4
12 12 13 13 13 13 12 12 11 11 10 10 9 10 8 8 7 6 6 7 8 8 8 8 7 7 6 6 7 7 6 6 5 5 4 4 3 3 2 3 3 4 4
12 12 13 13 12 12 12 12 11 11 11 10 10 10 9 7 6 6 6 6 7 8 8 8 7 7 6 6 6 5 6 6 6 5 5 5 4 6 5 4 3 3 4
11 12 12 12 11 11 11 11 11 11 11 12 11 10 10 8 8 8 7 7 7 7 8 9 8 8 7 7 7 6 7 6 6 6 5 5 5 5 5 5 5 4 3
9 11 12 12 12 12 12 12 12 11 11 12 11 11 10 10 10 9 8 8 7 7 8 8 8 8 7 7 7 7 7 7 7 7 6 5 6 5 5 6 6 5 4
8 10 11 12 12 12 12 12 12 12 12 11 11 10 10 9 8 9 8 7 6 6 6 8 8 8 8 8 7 7 8 7 8 8 7 6 6 6 6 6 6 6 5
6 9 10 11 11 12 12 12 12 12 11 11 10 10 10 9 8 8 8 7 7 6 7 7 8 8 8 8 7 7 7 7 8 8 8 7 6 6 6 6 6 7 7
5 7 8 9 10 10 11 11 11 11 11 11 10 9 9 9 8 7 8 7 7 6 7 7 7 8 8 8 8 7 7 7 7 6 7 7 7 5 6 6 6 7 7
4 6 7 8 8 9 10 10 10 10 10 10 9 9 9 9 9 8 8 8 7 7 7 7 7 7 8 7 7 8 8 8 7 7 8 8 7 6 6 6 6 7 7
3 5 5 6 7 8 8 9 9 9 9 9 9 9 8 8 9 9 8 8 8 8 8 7 7 8 8 7 8 8 8 8 8 8 8 8 7 7 6 6 7 7 7
3 4 4 4 5 5 6 7 8 8 8 9 9 9 9 9 9 8 8 8 8 8 7 7 8 8 7 7 7 8 8 8 8 8 8 8 7 7 6 7 7 7 7
3 3 3 3 3 3 4 6 6 7 8 8 9 9 9 8 8 8 8 8 7 7 7 7 7 7 7 7 7 7 7 7 7 7 7 7 7 7 7 7 7 7 7
2 2 3 3 3 3 3 4 4 5 6 7 8 8 8 7 7 8 7 7 7 7 7 7 6 7 7 6 6 6 6 5 6 6 6 6 5 5 5 5 5 6 7
1 1 2 2 3 3 3 3 3 4 5 5 6 6 7 7 7 7 7 7 7 6 6 6 6 6 5 2 3 5 5 5 6 6 6 5 5 5 6 5 5 4 6
2 1 1 2 2 2 2 3 3 3 4 4 4 5 6 5 6 6 6 6 6 6 6 5 6 5 4 3 4 5 5 5 5 5 5 5 4 5 5 6 7 6 6
1 1 1 1 1 2 2 2 2 3 3 4 4 4 5 5 5 5 5 6 5 5 5 5 6 5 5 5 5 5 6 5 5 5 5 5 4 4 5 5 5 6 6
1 1 1 1 1 1 2 2 2 2 3 3 3 3 4 5 5 5 4 4 4 4 5 5 5 5 5 5 4 5 5 5 5 5 4 4 4 3 3 5 5 5 5
1 1 1 1 2 1 2 2 2 3 3 2 2 2 3 4 5 4 4 4 4 4 4 4 4 4 4 4 4 6 5 4 4 4 4 3 3 3 4 5 5 5 5
2 2 1 1 1 2 2 2 2 2 2 2 2 2 2 3 4 4 4 4 4 3 3 4 4 4 3 4 5 4 4 4 4 3 3 2 3 3 5 6 5 5 5
2 2 2 1 1 1 2 3 2 2 2 3 3 3 2 2 2 3 3 3 3 4 4 4 3 3 2 2 4 4 4 4 4 4 3 1 2 2 4 4 3 5 5
2 2 2 1 1 1 2 2 2 2 3 3 3 2 2 1 1 2 3 4 4 3 3 3 2 1 1 3 5 5 5 4 3 2 1 0 2 3 4 5 6 6 4
2 2 1 1 2 2 1 1 1 2 3 3 3 2 2 2 2 1 2 3 3 3 3 2 2 1 2 1 1 1 2 4 3 1 2 4 6 5 3 3 4 4 3
2 2 2 2 2 2 1 1 1 2 3 3 3 3 3 2 2 2 0 1 1 1 2 2 2 2 2 1 3 0 1 1 1 1 2 2 2 2 3 3 3 3 4
2 2 2 3 2 2 1 1 1 2 2 3 3 3 3 3 2 3 2 3 1 2 1 1 1 0 1 2 2 1 0 1 2 3 3 3 3 3 3 3 3 4 4
Wind_Direction
191 188 192 193 190 190 191 192 191 183 185 185 186 184 182 183 184 187 184 190 196 190 195 194 179 195 196 201 198 198 198 211 210 224 240 238 227 221 218 229 234 221 223
191 191 194 194 194 192 194 193 193 189 190 187 190 192 187 190 188 189 183 197 198 195 192 195 194 194 195 202 206 209 219 219 210 228 239 236 214 205 212 210 217 231 229
195 193 196 198 196 196 197 197 195 192 193 187 188 186 184 196 189 192 191 196 197 199 203 198 203 199 206 201 208 214 221 225 222 224 238 248 244 235 191 213 219 225 238
197 195 195 196 198 197 196 197 194 194 193 192 199 199 198 200 196 195 189 190 196 201 202 204 204 209 213 204 214 213 222 228 230 221 234 262 291 265 239 221 219 225 231
197 195 195 194 195 193 191 191 191 194 195 199 201 205 208 205 199 196 188 197 198 203 207 207 208 211 217 215 222 217 228 229 237 238 232 234 240 249 262 263 256 249 242
199 195 192 190 192 190 189 187 187 192 196 199 203 204 206 206 203 200 198 203 204 205 208 210 211 215 221 217 221 223 225 237 242 248 244 242 244 246 250 261 264 265 264
196 192 189 188 191 191 190 189 189 194 195 197 202 203 207 207 208 209 207 212 212 208 203 211 212 218 220 222 223 223 230 227 231 239 247 250 251 260 259 264 267 270 263
189 187 187 187 190 192 191 190 192 195 195 197 199 203 207 211 213 212 218 216 221 220 206 209 216 221 221 223 221 229 227 225 226 233 240 249 251 252 252 256 265 267 263
178 178 179 183 188 192 192 192 192 195 196 198 197 200 205 214 216 213 217 220 220 220 211 213 216 219 221 225 225 232 231 225 226 230 228 236 242 244 249 250 251 260 268
171 171 176 181 185 189 190 192 194 196 198 198 201 200 203 206 212 217 217 220 219 219 219 218 216 217 219 221 225 230 228 229 231 236 243 242 244 244 246 247 245 247 256
169 172 173 178 182 184 186 191 194 195 198 200 200 202 200 201 205 209 215 215 216 214 217 221 222 223 222 222 221 229 227 229 231 233 234 236 243 242 242 243 243 242 244
166 169 166 171 179 185 186 190 195 197 198 197 198 200 200 200 203 207 210 212 213 216 215 217 219 223 223 223 222 227 229 231 232 233 235 238 234 232 242 244 246 246 245
152 155 158 166 177 187 191 193 197 199 198 196 198 199 201 202 204 206 207 208 209 213 217 217 219 223 225 225 225 228 232 236 237 237 235 236 236 236 235 239 245 245 243
153 150 147 161 173 182 190 195 197 197 197 198 198 199 203 204 205 207 207 207 208 213 219 220 223 226 228 229 229 230 234 239 243 245 242 241 237 236 236 237 242 246 248
172 163 164 164 172 177 180 186 192 193 194 197 196 196 199 202 205 206 206 204 207 212 216 219 220 224 226 228 231 230 227 228 238 243 245 247 244 250 249 250 241 240 242
210 202 181 175 173 169 175 178 184 185 187 191 192 191 196 201 202 204 203 203 206 209 210 214 219 224 227 200 233 238 235 230 238 243 246 242 230 224 219 240 256 257 247
219 231 229 207 185 178 168 170 174 177 178 180 186 187 191 194 195 199 198 202 205 203 206 212 217 221 220 193 208 218 230 234 240 242 246 251 240 226 233 221 216 229 244
232 237 228 217 183 161 150 155 155 162 168 170 174 177 179 183 186 189 194 200 204 205 207 214 221 223 216 188 206 222 227 233 234 238 241 246 252 248 247 243 241 237 233
253 250 290 244 156 156 158 159 162 164 167 169 169 167 174 179 181 182 188 195 197 204 210 208 218 226 221 183 198 228 230 230 236 240 244 244 244 252 253 242 245 246 246
259 258 247 210 183 188 176 183 184 180 183 177 165 164 171 183 187 189 195 199 201 207 217 214 215 224 228 176 189 229 234 232 238 235 235 221 232 240 250 240 241 246 255
254 237 220 192 192 204 199 197 196 193 183 165 162 168 177 187 190 192 198 202 209 209 218 227 222 223 224 185 182 216 239 242 248 252 252 237 166 212 243 254 253 255 265
255 229 208 201 209 221 216 214 209 187 173 166 161 168 180 198 185 184 199 204 207 210 215 217 224 224 205 184 171 190 235 273 256 265 281 337 131 245 256 252 252 256 255
274 246 225 218 241 243 229 227 212 188 183 175 167 164 157 165 176 179 195 206 202 212 217 213 215 207 193 173 167 185 203 230 247 273 35 337 237 257 252 226 235 242 247
265 259 239 247 260 260 239 212 202 194 184 179 170 167 168 174 164 188 204 214 205 204 211 220 224 219 208 202 185 202 195 190 212 231 160 192 221 237 248 240 236 250 255
257 251 252 250 254 260 253 222 193 195 194 193 191 189 191 184 175 181 208 229 226 237 229 230 233 236 234 68 60 264 261 282 316 296 243 246 249 248 247 249 249 248 243
259 252 257 261 260 243 242 240 213 187 190 198 201 204 196 182 183 167 138 77 98 91 143 181 224 243 88 104 106 98 348 284 238 248 245 250 253 255 256 256 255 254 255
Height
1505 1507 1510 1512 1513 1515 1516 1518 1520 1521 1523 1525 1527 1529 1531 1532 1534 1535 1536 1537 1539 1540 1542 1544 1545 1547 1549 1550 1552 1553 1554 1555 1556 1558 1558 1558 1558 1558 1559 1559 1560 1560 1560
1502 1505 1507 1509 1511 1512 1514 1516 1518 1520 1522 1524 1526 1528 1530 1532 1533 1534 1535 1537 1538 1540 1542 1543 1545 1546 1548 1549 1550 1551 1553 1554 1555 1556 1557 1557 1558 1557 1557 1557 1557 1558 1558
1498 1501 1503 1506 1508 1510 1512 1514 1516 1518 1520 1523 1525 1527 1528 1530 1532 1533 1534 1536 1537 1539 1541 1542 1544 1545 1546 1547 1548 1549 1551 1552 1553 1554 1555 1555 1554 1555 1555 1555 1555 1555 1555
1494 1497 1500 1502 1504 1507 1509 1511 1514 1516 1518 1521 1523 1525 1526 1528 1530 1532 1533 1534 1536 1537 1539 1540 1542 1543 1545 1545 1546 1548 1549 1550 1551 1552 1552 1553 1553 1553 1553 1553 1553 1553 1552
1490 1493 1496 1499 1501 1504 1507 1509 1511 1513 1516 1518 1520 1522 1525 1527 1528 1530 1531 1533 1534 1535 1537 1538 1540 1541 1542 1543 1544 1545 1546 1547 1548 1549 1550 1550 1551 1551 1551 1550 1551 1551 1550
1487 1490 1493 1496 1499 1502 1504 1506 1508 1510 1512 1515 1517 1519 1522 1524 1526 1527 1529 1530 1532 1533 1535 1536 1537 1538 1540 1541 1541 1542 1543 1544 1545 1546 1547 1547 1548 1548 1548 1548 1548 1548 1548
1483 1486 1489 1492 1496 1499 1501 1503 1505 1507 1509 1512 1514 1516 1518 1520 1522 1524 1526 1528 1530 1531 1532 1534 1534 1536 1537 1538 1539 1540 1541 1541 1542 1542 1543 1544 1545 1545 1545 1545 1545 1545 1545
1479 1482 1486 1489 1493 1496 1498 1500 1502 1504 1506 1508 1511 1513 1515 1518 1520 1521 1523 1525 1527 1528 1529 1530 1531 1533 1534 1535 1536 1537 1537 1537 1538 1539 1540 1540 1541 1541 1541 1542 1542 1541 1541
1477 1480 1483 1487 1490 1492 1495 1497 1499 1501 1503 1505 1507 1509 1512 1514 1517 1518 1520 1522 1523 1525 1526 1527 1528 1529 1530 1531 1532 1533 1534 1534 1535 1536 1536 1536 1537 1537 1538 1538 1538 1539 1538
1476 1479 1481 1484 1487 1490 1492 1494 1496 1498 1500 1502 1504 1506 1508 1511 1513 1515 1517 1518 1520 1521 1523 1524 1525 1526 1527 1528 1529 1529 1530 1531 1531 1532 1532 1532 1533 1534 1534 1534 1534 1534 1535
1475 1477 1480 1482 1485 1487 1489 1491 1493 1495 1497 1499 1501 1503 1505 1507 1509 1511 1513 1515 1516 1517 1519 1520 1521 1522 1523 1524 1525 1526 1527 1527 1528 1528 1528 1528 1529 1530 1530 1530 1530 1530 1530
1474 1476 1478 1480 1483 1485 1487 1488 1490 1492 1494 1496 1498 1500 1502 1504 1506 1507 1509 1511 1512 1514 1515 1516 1518 1519 1520 1520 1521 1522 1523 1523 1523 1524 1524 1524 1525 1525 1526 1526 1526 1526 1526
1474 1475 1477 1478 1480 1482 1484 1486 1487 1489 1491 1493 1494 1496 1498 1500 1502 1504 1505 1507 1508 1510 1511 1512 1513 1514 1516 1516 1517 1518 1518 1519 1519 1520 1520 1520 1521 1521 1521 1521 1522 1522 1522
1473 1474 1475 1477 1478 1480 1481 1483 1485 1486 1488 1490 1491 1493 1495 1497 1498 1500 1501 1503 1504 1506 1507 1508 1509 1510 1511 1512 1513 1514 1514 1514 1515 1515 1515 1516 1516 1516 1516 1517 1516 1517 1517
1473 1474 1474 1475 1476 1478 1479 1480 1482 1484 1485 1487 1488 1489 1491 1493 1495 1496 1498 1499 1500 1501 1503 1503 1504 1506 1507 1508 1509 1509 1510 1510 1510 1510 1510 1510 1510 1511 1511 1512 1512 1512 1512
1471 1473 1473 1474 1475 1475 1477 1478 1479 1481 1482 1483 1485 1486 1488 1489 1491 1493 1494 1495 1496 1497 1498 1499 1500 1502 1503 1503 1504 1505 1505 1505 1506 1506 1506 1506 1506 1506 1506 1507 1507 1507 1507
1470 1471 1472 1472 1473 1473 1474 1475 1477 1478 1479 1480 1482 1483 1484 1486 1487 1489 1490 1491 1492 1493 1494 1495 1496 1497 1498 1499 1500 1500 1500 1500 1501 1501 1501 1502 1502 1502 1502 1501 1501 1501 1502
1469 1470 1471 1471 1471 1472 1473 1474 1475 1476 1477 1478 1479 1480 1481 1482 1484 1485 1486 1487 1489 1489 1490 1491 1492 1493 1494 1494 1495 1496 1496 1497 1497 1497 1497 1497 1497 1497 1497 1497 1497 1496 1497
1468 1468 1469 1470 1470 1470 1471 1472 1473 1474 1475 1475 1476 1477 1478 1479 1480 1481 1483 1484 1485 1486 1486 1486 1488 1489 1490 1490 1491 1492 1493 1493 1493 1493 1493 1493 1492 1492 1492 1492 1492 1492 1492
1466 1466 1467 1468 1468 1469 1469 1470 1471 1472 1472 1473 1474 1474 1475 1476 1477 1478 1479 1481 1482 1482 1483 1484 1484 1485 1486 1486 1487 1488 1489 1489 1489 1489 1489 1488 1488 1488 1488 1488 1488 1487 1487
1464 1464 1464 1465 1466 1466 1467 1467 1468 1469 1470 1470 1471 1472 1472 1473 1473 1474 1476 1477 1479 1479 1481 1481 1481 1481 1482 1483 1484 1484 1485 1486 1486 1486 1486 1485 1485 1484 1484 1484 1484 1484 1483
1461 1462 1462 1463 1463 1464 1464 1465 1465 1466 1467 1467 1468 1469 1470 1470 1471 1471 1472 1473 1475 1476 1477 1478 1478 1479 1479 1479 1480 1480 1481 1482 1482 1482 1482 1482 1481 1481 1480 1479 1479 1480 1480
1460 1460 1460 1461 1461 1462 1462 1462 1462 1463 1464 1465 1465 1466 1467 1467 1467 1468 1469 1471 1471 1473 1474 1475 1475 1476 1476 1476 1476 1476 1477 1477 1478 1477 1477 1477 1477 1476 1476 1476 1476 1476 1476
1458 1458 1459 1459 1459 1459 1460 1460 1460 1460 1461 1462 1463 1463 1464 1464 1465 1466 1467 1469 1469 1470 1471 1472 1472 1473 1474 1474 1473 1474 1474 1474 1474 1474 1473 1473 1473 1473 1472 1472 1472 1472 1472
1456 1457 1457 1457 1456 1457 1457 1457 1457 1458 1459 1460 1460 1461 1462 1463 1463 1464 1465 1466 1467 1468 1469 1469 1470 1470 1470 1470 1470 1470 1470 1471 1471 1470 1470 1471 1471 1470 1470 1470 1469 1469 1469
1454 1454 1455 1455 1455 1455 1455 1455 1455 1456 1456 1457 1458 1460 1461 1461 1462 1462 1463 1464 1465 1466 1466 1466 1466 1467 1467 1467 1467 1467 1467 1467 1467 1468 1468 1468 1468 1467 1467 1467 1467 1466 1466